Previsão horária em Aalsmeer

Hoje, 29 Outubro, Quinta-feira

Tempo Temperatura Precipitação Vento Pressão Humidade
00:00 +9°C° 0 mm 7 m/s 754 mmHg 77%
01:00 +9°C° 0.2 mm 7 m/s 754 mmHg 76%
02:00 +8°C° 0.2 mm 7 m/s 755 mmHg 75%
03:00 +8°C° 0.2 mm 7 m/s 756 mmHg 74%
04:00 +8°C° 0 mm 7 m/s 756 mmHg 74%
05:00 +8°C° 0 mm 6 m/s 757 mmHg 75%
06:00 +8°C° 0 mm 6 m/s 757 mmHg 77%
07:00 +9°C° 0 mm 6 m/s 758 mmHg 75%
08:00 +9°C° 0 mm 6 m/s 759 mmHg 73%
09:00 +10°C° 0 mm 7 m/s 760 mmHg 72%
10:00 +11°C° 0 mm 7 m/s 760 mmHg 70%
11:00 +11°C° 0 mm 6 m/s 760 mmHg 69%
12:00 +13°C° 0 mm 6 m/s 761 mmHg 67%
13:00 +11°C° 0.4 mm 6 m/s 761 mmHg 75%
14:00 +11°C° 0.4 mm 6 m/s 760 mmHg 83%
15:00 +10°C° 0.4 mm 6 m/s 760 mmHg 91%
16:00 +10°C° 1.5 mm 7 m/s 760 mmHg 91%
17:00 +11°C° 1.5 mm 8 m/s 759 mmHg 92%
18:00 +11°C° 1.5 mm 8 m/s 759 mmHg 92%
19:00 +12°C° 0.9 mm 8 m/s 759 mmHg 90%
20:00 +12°C° 0.9 mm 8 m/s 759 mmHg 88%
21:00 +13°C° 0.9 mm 8 m/s 759 mmHg 86%
22:00 +13°C° 0 mm 8 m/s 759 mmHg 87%
23:00 +13°C° 0 mm 8 m/s 760 mmHg 87%

Amanhã, 30 Outubro, Sexta-feira

Tempo Temperatura Precipitação Vento Pressão Humidade
00:00 +13°C° 0 mm 8 m/s 760 mmHg 87%
01:00 +13°C° 0 mm 8 m/s 760 mmHg 86%
02:00 +13°C° 0 mm 8 m/s 760 mmHg 86%
03:00 +13°C° 0 mm 8 m/s 760 mmHg 85%
04:00 +13°C° 0.2 mm 8 m/s 760 mmHg 85%
05:00 +13°C° 0.2 mm 8 m/s 761 mmHg 86%
06:00 +13°C° 0.2 mm 8 m/s 761 mmHg 87%
07:00 +13°C° 0 mm 8 m/s 761 mmHg 86%
08:00 +15°C° 0 mm 8 m/s 761 mmHg 85%
09:00 +15°C° 0 mm 8 m/s 762 mmHg 84%
10:00 +15°C° 0 mm 8 m/s 762 mmHg 82%
11:00 +16°C° 0 mm 8 m/s 762 mmHg 79%
12:00 +16°C° 0 mm 8 m/s 763 mmHg 77%
13:00 +16°C° 0 mm 8 m/s 763 mmHg 78%
14:00 +16°C° 0 mm 7 m/s 763 mmHg 79%
15:00 +15°C° 0 mm 7 m/s 763 mmHg 80%
16:00 +15°C° 0 mm 7 m/s 764 mmHg 80%
17:00 +15°C° 0 mm 6 m/s 764 mmHg 79%
18:00 +15°C° 0 mm 6 m/s 764 mmHg 79%
19:00 +15°C° 0 mm 6 m/s 764 mmHg 79%
20:00 +15°C° 0 mm 6 m/s 764 mmHg 79%
21:00 +14°C° 0 mm 5 m/s 765 mmHg 79%
22:00 +14°C° 0 mm 5 m/s 765 mmHg 81%
23:00 +13°C° 0 mm 5 m/s 765 mmHg 83%

Depois de amanhã, 31 Outubro, Sábado

Tempo Temperatura Precipitação Vento Pressão Humidade
00:00 +13°C° 0 mm 5 m/s 765 mmHg 86%
01:00 +13°C° 0 mm 5 m/s 764 mmHg 83%
02:00 +13°C° 0 mm 5 m/s 764 mmHg 79%
03:00 +14°C° 0 mm 5 m/s 764 mmHg 76%
04:00 +13°C° 0 mm 5 m/s 764 mmHg 79%
05:00 +12°C° 0 mm 5 m/s 764 mmHg 82%
06:00 +12°C° 0 mm 5 m/s 763 mmHg 84%
07:00 +12°C° 0 mm 5 m/s 763 mmHg 83%
08:00 +13°C° 0 mm 6 m/s 763 mmHg 81%
09:00 +13°C° 0 mm 6 m/s 762 mmHg 79%
10:00 +14°C° 0 mm 6 m/s 762 mmHg 76%
11:00 +15°C° 0 mm 7 m/s 761 mmHg 74%
12:00 +15°C° 0 mm 7 m/s 761 mmHg 71%
13:00 +15°C° 0 mm 7 m/s 760 mmHg 71%
14:00 +15°C° 0 mm 7 m/s 759 mmHg 70%
15:00 +15°C° 0 mm 7 m/s 758 mmHg 70%
16:00 +15°C° 0 mm 7 m/s 758 mmHg 70%
17:00 +15°C° 0 mm 8 m/s 757 mmHg 70%
18:00 +15°C° 0 mm 8 m/s 756 mmHg 70%
19:00 +15°C° 0.5 mm 8 m/s 757 mmHg 73%
20:00 +15°C° 0.5 mm 8 m/s 757 mmHg 77%
21:00 +15°C° 0.5 mm 8 m/s 757 mmHg 80%
22:00 +14°C° 0 mm 7 m/s 757 mmHg 81%
23:00 +13°C° 0 mm 6 m/s 757 mmHg 82%

1 Novembro, Domingo

Tempo Temperatura Precipitação Vento Pressão Humidade
00:00 +13°C° 0 mm 5 m/s 757 mmHg 83%
01:00 +13°C° 0 mm 4 m/s 757 mmHg 82%
02:00 +12°C° 0 mm 4 m/s 757 mmHg 81%
03:00 +12°C° 0 mm 4 m/s 757 mmHg 80%
04:00 +12°C° 0.2 mm 4 m/s 757 mmHg 83%
05:00 +12°C° 0.2 mm 4 m/s 756 mmHg 86%
06:00 +12°C° 0.2 mm 4 m/s 756 mmHg 89%
07:00 +12°C° 0.5 mm 5 m/s 755 mmHg 88%
08:00 +13°C° 0.5 mm 6 m/s 754 mmHg 86%
09:00 +12°C° 0.5 mm 8 m/s 754 mmHg 85%
10:00 +13°C° 0.3 mm 9 m/s 753 mmHg 85%
11:00 +14°C° 0.3 mm 10 m/s 752 mmHg 86%
12:00 +16°C° 0.3 mm 11 m/s 751 mmHg 86%
13:00 +16°C° 0.1 mm 11 m/s 752 mmHg 84%
14:00 +16°C° 0.1 mm 11 m/s 752 mmHg 81%
15:00 +16°C° 0.1 mm 11 m/s 752 mmHg 78%
16:00 +16°C° 1 mm 10 m/s 752 mmHg 82%
17:00 +16°C° 1 mm 9 m/s 752 mmHg 86%
18:00 +16°C° 1 mm 8 m/s 751 mmHg 89%
19:00 +16°C° 1 mm 9 m/s 751 mmHg 89%
20:00 +17°C° 1 mm 10 m/s 751 mmHg 89%
21:00 +18°C° 1 mm 11 m/s 750 mmHg 88%
22:00 +18°C° 1.4 mm 11 m/s 750 mmHg 88%
23:00 +18°C° 1.4 mm 11 m/s 750 mmHg 88%

2 Novembro, Segunda-feira

Tempo Temperatura Precipitação Vento Pressão Humidade
00:00 +18°C° 1.4 mm 12 m/s 750 mmHg 87%
01:00 +18°C° 0.5 mm 12 m/s 750 mmHg 86%
02:00 +18°C° 0.5 mm 12 m/s 749 mmHg 86%
03:00 +17°C° 0.5 mm 11 m/s 749 mmHg 85%
04:00 +18°C° 0.4 mm 11 m/s 749 mmHg 83%
05:00 +18°C° 0.4 mm 11 m/s 749 mmHg 81%
06:00 +18°C° 0.4 mm 11 m/s 750 mmHg 79%
07:00 +18°C° 0 mm 11 m/s 750 mmHg 77%
08:00 +18°C° 0 mm 11 m/s 750 mmHg 76%
09:00 +18°C° 0 mm 11 m/s 750 mmHg 74%
10:00 +17°C° 0.4 mm 10 m/s 750 mmHg 77%
11:00 +17°C° 0.4 mm 9 m/s 750 mmHg 80%
12:00 +17°C° 0.4 mm 8 m/s 751 mmHg 83%
13:00 +16°C° 0.7 mm 8 m/s 751 mmHg 83%
14:00 +14°C° 0.7 mm 7 m/s 752 mmHg 83%
15:00 +12°C° 0.7 mm 7 m/s 753 mmHg 83%
16:00 +11°C° 0.9 mm 7 m/s 754 mmHg 81%
17:00 +11°C° 0.9 mm 7 m/s 755 mmHg 79%
18:00 +10°C° 0.9 mm 8 m/s 757 mmHg 77%
19:00 +10°C° 0 mm 7 m/s 757 mmHg 75%
20:00 +9°C° 0 mm 6 m/s 758 mmHg 74%
21:00 +9°C° 0 mm 6 m/s 759 mmHg 73%
22:00 +9°C° 0 mm 5 m/s 760 mmHg 72%
23:00 +8°C° 0 mm 4 m/s 760 mmHg 72%

3 Novembro, Terça-feira

Tempo Temperatura Precipitação Vento Pressão Humidade
00:00 +8°C° 0 mm 4 m/s 761 mmHg 71%
01:00 +9°C° 0 mm 3 m/s 761 mmHg 73%
02:00 +8°C° 0 mm 3 m/s 761 mmHg 75%
03:00 +8°C° 0 mm 3 m/s 761 mmHg 77%
04:00 +8°C° 0 mm 3 m/s 761 mmHg 80%
05:00 +7°C° 0 mm 3 m/s 761 mmHg 83%
06:00 +6°C° 0 mm 4 m/s 761 mmHg 86%
07:00 +7°C° 0 mm 4 m/s 761 mmHg 84%
08:00 +8°C° 0 mm 5 m/s 761 mmHg 82%
09:00 +9°C° 0 mm 6 m/s 761 mmHg 79%
10:00 +10°C° 0.1 mm 7 m/s 761 mmHg 75%
11:00 +10°C° 0.1 mm 7 m/s 762 mmHg 71%
12:00 +11°C° 0.1 mm 8 m/s 762 mmHg 67%
13:00 +11°C° 0 mm 7 m/s 762 mmHg 67%
14:00 +11°C° 0 mm 6 m/s 762 mmHg 67%
15:00 +11°C° 0 mm 6 m/s 763 mmHg 67%
16:00 +10°C° 0.1 mm 6 m/s 763 mmHg 71%
17:00 +10°C° 0.1 mm 6 m/s 763 mmHg 74%
18:00 +9°C° 0.1 mm 6 m/s 763 mmHg 77%
19:00 +9°C° 0.1 mm 7 m/s 764 mmHg 77%
20:00 +9°C° 0.1 mm 7 m/s 764 mmHg 77%
21:00 +9°C° 0.1 mm 7 m/s 764 mmHg 77%
22:00 +8°C° 0.1 mm 7 m/s 764 mmHg 77%
23:00 +8°C° 0.1 mm 6 m/s 764 mmHg 77%
Mostrar mais